Regional Weather Roundup
Issued by NWS

Home | Current Version | Previous Version | Text Only | Print | Product List | Glossary Off
Versions: 1 2 3 4 5 6 7 8 9 10 11 12 13 14 15 16 17 18 19 20 21 22 23 24 25 26 27 28 29 30 31 32 33 34 35 36 37 38 39 40 41 42 43 44 45 46 47 48 49 50

000
ASUS43 KOAX 181702
RWRNE

WEATHER ROUNDUP FOR NEBRASKA
NATIONAL WEATHER SERVICE OMAHA NE
1100 AM CST THU DEC 18 2014

NOTES: SATELLITE DATA IS BEING USED TO AUGMENT CLOUD COVER ABOVE
       12000 FEET.
       "FAIR" INDICATES FEW OR NO CLOUDS BELOW 12,000 FEET WITH NO
       SIGNIFICANT WEATHER AND/OR OBSTRUCTIONS TO VISIBILITY.

  * THESE STATIONS DO NOT REPORT WEATHER SUCH AS RAIN...SNOW OR FOG.

NEZ001>004-019>022-054>056-181800-
NEBRASKA PANHANDLE

CITY           SKY/WX    TMP DP  RH WIND       PRES   REMARKS
SCOTTSBLUFF    MOSUNNY   10   7  87 NW7       30.08R FOG     WCI  -1
ALLIANCE       SUNNY     16  13  88 W6        30.04R WCI   7
CHADRON        SUNNY     16  13  88 SW7       30.06R WCI   6
KIMBALL        SUNNY     32  21  63 W7        30.02R WCI  26
SIDNEY         SUNNY     26  20  77 NW10      30.05R WCI  16
$$

NEZ057>060-069>072-079>082-181800-
SOUTHWEST NEBRASKA

CITY           SKY/WX    TMP DP  RH WIND       PRES   REMARKS
NORTH PLATTE   CLOUDY    26  23  88 SW8       30.12R WCI  18
IMPERIAL       CLOUDY    25  23  92 W7        30.11R FOG     WCI  17
LEXINGTON      CLOUDY    28  24  88 SW6       30.16S WCI  21
MCCOOK         CLOUDY    25  24  96 S3        30.15R
$$

NEZ005>010-023>029-035>040-094-181800-
NORTH CENTRAL NEBRASKA

CITY           SKY/WX    TMP DP  RH WIND       PRES   REMARKS
VALENTINE      CLOUDY    26  22  84 SW7       30.09R WCI  18
AINSWORTH      CLOUDY    26  23  90 SW3       30.10S
BROKEN BOW     CLOUDY    26  24  92 S9        30.13S WCI  17
ORD            CLOUDY    25  22  88 S6        30.17R FOG     WCI  18
$$

NEZ041-046>049-061>064-073>077-083>087-181800-
SOUTH CENTRAL NEBRASKA

CITY           SKY/WX    TMP DP  RH WIND       PRES   REMARKS
GRAND ISLAND   CLOUDY    26  22  84 S5        30.21R WCI  20
AURORA         CLOUDY    27  24  90 SW5       30.20S WCI  22
HASTINGS       CLOUDY    26  22  84 SW3       30.19R
KEARNEY *      CLOUDY    27  23  86 S8        30.18S WCI  18
$$

NEZ011>018-030>034-042>045-181800-
NORTHEAST NEBRASKA

CITY           SKY/WX    TMP DP  RH WIND       PRES   REMARKS
NORFOLK        CLOUDY    27  23  85 S7        30.20F WCI  19
BLAIR          CLOUDY    29  25  84 SE5       30.24R FOG     WCI  24
COLUMBUS *     PTSUNNY   27  19  74 SE6       30.23F WCI  20
FREMONT        CLOUDY    30  26  86 SE5       30.25S WCI  25
TEKAMAH        CLOUDY    28  24  85 SE6       30.26S WCI  22
$$

NEZ050>053-065>068-078-088>093-181800-
SOUTHEAST NEBRASKA

CITY           SKY/WX    TMP DP  RH WIND       PRES   REMARKS
LINCOLN        CLOUDY    29  25  85 S5        30.25F WCI  24
OMAHA EPPLEY   LGT SNOW  28  24  85 S6        30.27S FOG     WCI  22
BEATRICE       CLOUDY    29  26  89 E5        30.23F FOG     WCI  24
FALLS CITY     CLOUDY    29  26  89 E6        30.26S WCI  23
NEBRASKA CITY  LGT SNOW  29  27  92 SE3       30.25S
PLATTSMOUTH    LGT SNOW  29  25  84 SE5       30.25S WCI  24
$$

NEZ044-045-051>053-067-181800-
OMAHA AREA

CITY           SKY/WX    TMP DP  RH WIND       PRES   REMARKS
OMAHA EPPLEY   LGT SNOW  28  24  85 S6        30.27S FOG     WCI  22
BLAIR          CLOUDY    29  25  84 SE5       30.24R FOG     WCI  24
FREMONT        CLOUDY    30  26  86 SE5       30.25S WCI  25
OFFUTT AFB     LGT SNOW  28  25  87 SE5       30.26R FOG     WCI  23
PLATTSMOUTH    LGT SNOW  29  25  84 SE5       30.25S WCI  24
WAHOO          CLOUDY    29  25  84 SE5       30.24S FOG     WCI  24
$$



USA.gov is the U.S. government's official web portal to all federal, state and local government web resources and services.